Погода в Николаеве

Украина / Николаевская область     46°58′30″N   31°59′40″E
темп.,
°C
ветер,
м/с
пор.,
м/с
влажн.,
%
обл.,
%
осадки,
мм/ч
давл.,
гПа
погр.,
м
19 мая, ср
ср1900:00+13ююз510815 0.4 1001251
03:00+11юз48907 0.4 1001220
06:00+12юз36905 0.3 1002225
09:00+15ю457381 0.5 10021005
12:00+15вюв117599 0.3 1003576
15:00+20з785358 0.3 10041767
18:00+15зсз81374100 0.3 10071040
21:00+13з7137673 0.3 1009828
20 мая, чт
чт2000:00+12з612765 0.0 1010441
03:00+11зюз49765 0.0 1010203
06:00+11зюз36843 0.0 1010131
09:00+16з226489 0.0 1010540
12:00+20юз3450100 0.0 10101500
15:00+19зсз2255100 0.4 10101068
18:00+15ссз4583100 1.6 1011279
21:00+14св599281 3.6 1010275
21 мая, пт
пт2100:00+13св6129199 0.7 1011402
03:00+13св71586100 0.7 1011558
06:00+13св71586100 0.0 1010612
09:00+16св71374100 0.0 1011765
12:00+19св7964100 0.0 10111219
15:00+20ссв7965100 0.0 10101146
18:00+18ссв81371100 0.0 1011655
21:00+16ссв71474100 0.0 1011501
22 мая, сб
сб2200:00+15ссв61375100 0.0 1011392
03:00+15ссв61176100 0.1 1011384
06:00+14ссз51087100 1.0 1011302
09:00+17ссв6974100 1.0 1012581
12:00+22ссв676199 0.0 1011943
15:00+24ссв555397 0.0 10101411
18:00+24с6658100 0.0 10101207
21:00+18ссв4980100 0.0 1011251
23 мая, вс
вс2300:00+16ссз3489100 0.0 101189
03:00+15с3591100 0.0 101196
06:00+15сз3589100 0.0 1011130
09:00+20зсз356631 0.0 1011608
12:00+25з4645100 0.0 10111632
15:00+26зсз7836100 0.0 10112015
18:00+23сз785088 0.0 10121177
21:00+18сз4971100 0.0 1014362